Wind_Speed
3 4 5 5 4 5 5 6 6 5 6 6 6 6 5 5 5 4 4 4 4 5 5 5 6 7 7 7 7 7 8 8 8 8 8 8 8 9 10 10 10 11 11
4 5 5 5 5 5 5 5 6 6 6 7 8 7 7 6 6 5 6 6 6 5 6 6 6 7 7 7 7 8 9 9 8 9 9 9 10 10 11 12 12 12 12
5 5 5 5 5 6 6 6 6 7 7 7 8 7 7 7 6 7 7 7 6 6 6 7 7 7 8 8 8 9 9 10 10 10 10 11 11 11 12 13 14 14 13
6 7 6 6 6 7 7 8 8 7 8 8 8 7 7 7 7 8 8 8 7 7 7 8 8 9 9 9 10 10 10 11 11 11 11 12 12 13 14 14 14 14 14
7 7 7 7 7 7 8 8 8 8 8 9 8 8 8 8 8 8 8 8 7 8 9 9 10 10 11 11 11 11 11 12 12 13 12 12 13 14 13 14 14 15 15
8 9 9 8 8 8 9 9 10 10 10 10 9 8 9 8 8 9 8 8 8 9 9 10 11 11 12 12 13 13 13 13 13 13 13 13 13 13 13 14 15 16 16
9 10 10 10 9 9 10 10 10 11 11 10 9 9 9 9 9 9 9 9 9 10 10 11 12 12 13 13 14 14 14 14 13 13 14 14 15 14 14 14 15 15 16
10 10 11 11 10 10 11 11 11 12 12 11 10 10 10 10 10 11 11 11 11 11 12 12 13 13 13 14 14 15 15 15 15 16 15 16 16 15 15 15 15 15 16
12 11 11 11 11 11 12 12 12 12 12 12 12 11 11 12 12 12 12 12 12 13 13 13 13 14 14 15 15 15 15 16 16 16 16 17 17 16 16 15 14 14 15
13 13 12 13 13 13 13 13 13 13 13 13 13 13 13 13 13 13 13 13 14 14 14 15 15 15 15 15 15 16 16 16 17 17 17 18 17 16 16 16 17 17 17
14 14 14 15 15 15 15 15 15 15 15 15 15 15 15 15 15 15 15 15 15 16 16 16 17 16 16 16 16 17 17 18 18 18 19 18 18 18 18 18 18 18 18
16 15 15 16 16 16 16 15 15 15 16 16 16 16 16 16 17 17 17 17 17 17 17 18 18 17 17 17 17 18 18 18 18 18 18 18 18 19 19 20 19 19 19
17 16 16 17 17 16 17 17 17 17 17 17 18 18 17 17 17 17 17 18 18 18 18 18 18 18 18 18 18 19 19 19 19 19 19 19 19 20 21 21 20 20 20
17 17 17 17 17 16 17 17 18 18 18 19 19 18 18 18 18 18 18 19 19 20 20 20 20 19 19 19 20 20 21 21 21 22 21 21 21 21 22 21 21 22 21
18 18 18 17 17 17 18 18 19 19 19 19 19 19 19 20 20 19 19 20 20 21 21 21 21 20 20 21 21 22 23 23 23 23 23 22 22 22 22 22 22 22 23
19 19 19 18 18 19 19 20 20 20 19 19 19 20 20 20 20 21 21 21 21 21 22 22 22 22 22 22 23 24 24 24 24 24 23 23 23 23 24 24 24 25 25
21 21 20 20 20 21 21 21 21 20 20 20 20 20 20 20 21 22 22 22 22 22 22 23 22 22 23 24 24 25 25 25 25 25 25 25 24 25 25 25 25 26 25
23 22 22 22 22 22 22 21 21 21 21 21 21 21 21 21 22 23 23 23 23 23 23 23 23 24 24 24 24 24 24 24 25 25 26 26 26 26 26 26 26 27 27
24 23 23 23 23 23 22 22 22 22 22 22 22 23 24 23 24 24 24 24 24 24 24 24 24 24 24 24 24 24 24 24 25 26 26 26 26 26 27 27 27 27 27
25 25 24 24 25 24 23 24 24 24 23 24 24 25 25 25 25 25 25 25 25 25 24 24 24 23 24 24 25 25 25 25 25 26 26 26 27 27 27 27 27 26 26
26 26 26 26 26 26 26 25 25 25 25 26 26 26 27 26 26 26 26 26 25 25 25 25 24 25 25 25 25 26 26 26 26 27 27 27 27 27 27 27 26 26 26
28 28 28 28 28 28 28 27 26 27 28 28 28 27 27 27 27 26 26 26 25 25 25 25 25 26 26 26 26 26 27 26 27 27 27 27 27 27 28 27 27 26 26
28 28 29 29 30 30 30 29 28 28 29 29 28 28 28 28 28 27 27 27 26 25 26 26 26 27 27 27 27 27 27 27 27 27 27 27 27 27 27 27 27 26 25
30 29 29 30 30 30 30 30 30 30 30 30 30 29 28 27 27 27 27 27 26 26 26 26 26 26 27 27 27 27 28 28 28 29 29 28 28 27 27 27 26 26 26
31 31 30 30 30 30 30 30 30 29 29 30 30 30 29 27 27 27 27 27 27 27 27 27 26 26 26 27 27 28 28 28 28 29 29 28 28 28 27 26 26 26 27
31 31 30 30 30 30 30 30 29 29 30 30 29 30 29 28 27 27 27 28 27 27 27 27 27 26 27 27 28 28 28 28 28 28 28 28 28 28 28 27 27 27 27
Wind_Direction
338 351 2 5 4 -0 3 3 1 2 1 354 348 344 338 335 336 333 326 317 310 304 302 305 300 293 287 285 286 289 294 296 293 288 282 277 276 273 272 271 270 269 265
337 345 351 351 344 340 339 338 343 350 352 344 336 332 328 324 325 321 313 306 301 295 290 290 295 299 294 288 288 289 289 292 294 289 282 279 276 275 274 272 272 268 267
320 323 329 324 323 325 320 323 336 336 336 336 332 327 326 324 318 315 311 303 294 287 281 285 288 291 294 296 299 297 292 289 290 288 283 279 277 279 278 277 276 271 267
325 322 314 313 312 312 313 322 323 325 325 325 323 322 318 313 310 307 305 301 291 285 287 289 287 286 289 294 298 299 296 293 290 288 285 282 280 281 281 278 276 274 270
314 318 310 300 299 301 305 312 312 313 315 316 315 312 311 310 307 307 306 301 292 287 285 288 286 285 286 289 292 295 296 294 292 288 286 284 283 283 278 276 274 272 271
308 304 298 292 290 293 299 305 306 307 309 312 310 306 307 309 304 302 302 297 293 289 285 286 285 283 284 285 287 289 292 293 290 288 286 285 285 281 278 276 273 272 271
304 298 296 294 293 292 295 299 302 304 305 306 304 302 301 301 303 300 297 294 290 289 289 288 287 285 282 283 286 289 291 290 289 288 287 285 284 284 283 279 274 271 269
295 295 295 295 290 288 290 295 300 302 303 300 299 297 297 297 298 299 296 292 290 290 292 291 291 287 285 283 285 289 291 290 291 289 286 285 284 284 284 283 279 273 269
293 289 288 293 290 285 289 293 297 300 300 297 294 293 296 296 296 297 292 287 285 288 291 291 291 287 286 285 285 286 290 288 291 290 286 284 284 283 283 283 281 277 271
289 283 284 291 290 288 288 291 295 298 299 297 295 291 291 290 291 293 294 289 286 286 289 290 290 287 286 285 289 287 290 290 291 289 287 285 284 284 283 282 281 281 278
288 284 284 288 289 287 288 289 291 294 294 294 291 289 289 288 288 289 291 290 291 291 291 289 289 289 287 288 288 289 290 291 291 289 288 286 284 284 282 282 282 281 280
286 286 286 287 288 288 289 289 288 293 291 290 290 289 289 288 287 288 290 293 295 296 293 292 291 291 288 289 288 289 289 289 290 290 288 285 283 284 284 283 283 281 279
283 286 284 283 284 284 288 289 287 290 291 288 290 290 290 289 289 290 293 294 295 296 295 296 295 291 289 288 287 288 289 288 288 288 286 287 284 283 284 283 282 280 278
281 281 284 282 283 284 288 288 288 290 292 290 288 289 291 291 291 292 294 295 294 294 294 293 293 290 288 288 288 288 288 288 288 287 288 289 286 285 284 282 281 281 279
280 281 282 284 285 286 288 287 289 290 289 289 289 289 289 290 291 292 293 293 293 292 292 292 291 288 286 286 287 287 287 287 288 288 287 286 286 285 286 284 282 281 281
276 278 279 283 285 285 285 286 287 287 286 287 287 287 286 286 289 290 292 294 293 292 293 290 290 288 286 286 287 288 286 287 288 287 286 286 286 285 284 285 282 279 280
275 278 279 282 284 284 285 287 288 286 285 285 285 284 284 285 288 290 291 292 292 292 291 292 290 291 289 288 287 288 286 288 290 289 287 287 285 285 284 285 284 282 281
276 280 282 283 284 285 285 287 287 284 284 285 284 283 282 283 285 287 288 289 290 290 291 291 291 291 291 290 289 288 288 288 288 289 288 287 286 285 285 284 283 282 282
274 274 277 280 281 282 284 285 285 284 283 284 283 283 283 283 284 285 286 287 289 290 290 291 291 291 291 290 288 287 287 287 287 287 288 288 287 287 287 285 283 283 284
272 271 273 277 279 278 280 282 284 284 283 282 283 283 285 285 285 285 286 288 288 288 289 289 290 291 291 290 289 286 285 286 287 288 289 288 288 288 287 285 283 283 284
271 272 274 276 277 279 279 280 282 283 284 284 285 285 285 284 284 284 285 286 286 287 288 289 289 289 290 291 290 290 289 288 287 288 289 290 289 288 287 287 284 283 283
272 273 274 275 276 278 279 281 282 285 286 286 285 284 284 283 283 284 285 285 284 286 288 288 289 289 289 290 290 289 289 288 288 288 288 289 289 289 288 287 285 283 281
271 273 274 275 276 277 278 279 282 284 285 286 284 283 282 281 282 285 285 286 285 286 287 287 288 288 289 288 288 286 285 286 286 287 288 288 288 288 288 287 285 283 282
273 275 277 277 279 279 279 281 282 283 284 286 288 287 285 284 284 284 285 285 285 287 288 288 288 289 289 288 286 286 285 284 284 285 286 286 287 287 288 286 284 284 284
273 273 274 275 276 278 280 281 282 284 286 287 288 288 286 284 284 284 284 285 285 286 289 290 289 289 289 289 288 287 286 285 285 284 284 284 284 285 286 285 284 283 284
273 273 273 275 277 278 279 280 281 282 283 285 285 284 283 284 283 284 284 284 285 287 288 290 290 289 289 289 289 289 289 289 287 285 284 284 283 283 284 284 283 282 282
Height
5894 5892 5891 5890 5890 5889 5888 5887 5886 5885 5884 5883 5882 5882 5881 5880 5879 5878 5877 5877 5876 5876 5876 5876 5876 5875 5875 5875 5875 5874 5873 5872 5872 5871 5871 5871 5871 5871 5871 5871 5870 5870 5870
5894 5892 5891 5891 5890 5889 5888 5887 5885 5884 5883 5882 5881 5880 5879 5878 5878 5877 5876 5875 5875 5874 5874 5874 5874 5874 5873 5873 5873 5872 5871 5871 5870 5869 5869 5869 5869 5868 5868 5868 5867 5867 5867
5893 5892 5891 5890 5889 5888 5887 5886 5885 5883 5882 5881 5880 5879 5878 5877 5877 5876 5875 5874 5873 5873 5873 5873 5872 5872 5872 5871 5870 5870 5869 5868 5868 5867 5866 5866 5865 5865 5865 5864 5864 5864 5864
5892 5891 5890 5889 5888 5887 5886 5885 5884 5883 5882 5881 5879 5878 5877 5876 5875 5874 5873 5872 5871 5871 5871 5870 5870 5870 5869 5869 5868 5867 5866 5866 5865 5864 5863 5863 5862 5862 5862 5861 5860 5860 5860
5891 5890 5889 5888 5887 5886 5885 5884 5882 5881 5880 5879 5878 5877 5875 5874 5873 5872 5871 5870 5869 5869 5868 5868 5868 5867 5867 5866 5865 5865 5864 5863 5862 5861 5860 5859 5859 5858 5858 5857 5857 5857 5857
5889 5888 5887 5885 5885 5884 5883 5882 5881 5880 5879 5877 5876 5875 5874 5872 5871 5870 5869 5868 5867 5866 5866 5865 5865 5864 5864 5863 5862 5861 5860 5859 5859 5858 5857 5856 5855 5854 5854 5853 5853 5853 5853
5887 5886 5884 5883 5882 5882 5881 5880 5879 5878 5877 5875 5874 5873 5871 5870 5869 5867 5866 5865 5864 5864 5863 5862 5861 5861 5860 5859 5859 5858 5857 5856 5855 5854 5853 5852 5851 5850 5850 5849 5849 5848 5848
5884 5883 5882 5881 5880 5879 5879 5878 5876 5875 5874 5873 5871 5870 5869 5867 5866 5864 5863 5862 5861 5860 5860 5859 5858 5857 5856 5856 5855 5854 5853 5852 5851 5850 5849 5848 5847 5846 5845 5845 5844 5844 5843
5881 5880 5879 5878 5877 5876 5876 5875 5874 5872 5871 5870 5868 5867 5866 5864 5863 5861 5860 5859 5858 5857 5856 5855 5854 5853 5852 5851 5851 5850 5849 5847 5847 5846 5844 5843 5842 5841 5841 5840 5840 5840 5839
5878 5877 5876 5875 5874 5873 5872 5872 5870 5869 5867 5866 5865 5864 5862 5861 5859 5858 5857 5855 5854 5853 5852 5851 5850 5849 5848 5847 5846 5845 5844 5843 5842 5841 5840 5839 5838 5837 5837 5836 5836 5835 5835
5874 5874 5873 5871 5870 5869 5868 5867 5866 5865 5864 5863 5861 5860 5858 5857 5855 5854 5853 5852 5850 5849 5848 5847 5846 5845 5844 5843 5842 5841 5840 5839 5838 5837 5835 5834 5834 5833 5832 5831 5831 5830 5830
5870 5869 5869 5867 5866 5865 5864 5863 5862 5861 5860 5859 5857 5855 5854 5853 5852 5850 5849 5848 5846 5845 5844 5843 5841 5840 5839 5838 5837 5836 5835 5834 5833 5832 5831 5830 5829 5828 5827 5827 5826 5825 5824
5865 5864 5864 5863 5862 5861 5860 5859 5858 5857 5856 5854 5852 5851 5850 5849 5847 5846 5845 5843 5842 5840 5839 5838 5837 5836 5834 5833 5832 5831 5830 5829 5828 5827 5825 5824 5823 5823 5822 5821 5820 5819 5819
5860 5860 5859 5858 5857 5856 5855 5854 5853 5852 5850 5849 5848 5846 5845 5844 5842 5841 5840 5838 5837 5835 5834 5832 5831 5830 5829 5828 5827 5826 5825 5824 5823 5821 5820 5819 5818 5817 5816 5815 5814 5813 5812
5856 5855 5854 5854 5853 5852 5851 5849 5848 5846 5845 5844 5842 5841 5840 5838 5837 5836 5835 5833 5832 5830 5828 5827 5826 5825 5824 5823 5821 5820 5819 5818 5817 5815 5814 5813 5812 5811 5810 5809 5808 5807 5806
5850 5849 5849 5848 5847 5846 5845 5844 5843 5841 5839 5838 5837 5836 5835 5833 5832 5831 5830 5828 5826 5824 5823 5821 5820 5819 5818 5817 5816 5814 5813 5812 5811 5809 5808 5807 5806 5805 5804 5802 5801 5800 5799
5844 5843 5843 5842 5841 5840 5839 5838 5837 5835 5834 5832 5831 5830 5829 5828 5826 5825 5823 5822 5821 5819 5818 5816 5814 5813 5811 5810 5809 5808 5806 5805 5804 5803 5802 5800 5799 5798 5796 5795 5794 5793 5791
5838 5837 5836 5836 5835 5834 5833 5831 5830 5829 5828 5827 5825 5824 5823 5821 5820 5819 5817 5816 5815 5813 5812 5810 5809 5807 5805 5803 5802 5801 5799 5798 5797 5796 5795 5793 5792 5790 5789 5788 5786 5785 5784
5831 5831 5830 5829 5829 5828 5827 5825 5824 5822 5821 5820 5819 5817 5816 5815 5813 5812 5811 5809 5808 5807 5805 5804 5802 5800 5799 5797 5795 5794 5793 5791 5790 5789 5788 5786 5785 5784 5782 5780 5779 5777 5776
5824 5824 5823 5822 5821 5820 5819 5818 5817 5815 5813 5812 5811 5810 5809 5807 5806 5805 5804 5802 5801 5800 5798 5797 5795 5794 5792 5790 5788 5786 5785 5784 5783 5782 5781 5779 5777 5776 5774 5773 5771 5770 5769
5817 5816 5815 5814 5813 5813 5811 5810 5809 5807 5806 5804 5804 5803 5801 5800 5799 5797 5796 5795 5794 5792 5791 5790 5788 5786 5785 5783 5781 5779 5778 5777 5775 5774 5773 5771 5769 5768 5766 5765 5764 5762 5761
5808 5808 5807 5807 5806 5805 5804 5802 5801 5800 5798 5797 5796 5795 5794 5793 5791 5790 5789 5788 5786 5785 5784 5782 5780 5779 5777 5775 5774 5772 5770 5769 5768 5766 5765 5763 5762 5760 5759 5757 5755 5754 5753
5800 5799 5799 5799 5798 5797 5796 5794 5793 5792 5791 5789 5788 5787 5786 5785 5784 5782 5781 5780 5778 5777 5775 5774 5772 5771 5769 5767 5766 5764 5762 5761 5759 5758 5757 5755 5754 5752 5751 5749 5747 5746 5745
5791 5791 5790 5790 5789 5789 5788 5786 5785 5784 5783 5782 5781 5779 5778 5776 5775 5774 5772 5772 5771 5769 5767 5765 5764 5762 5761 5759 5757 5755 5753 5752 5751 5749 5748 5747 5745 5744 5742 5741 5740 5738 5737
5783 5783 5782 5782 5781 5780 5779 5778 5777 5775 5774 5773 5773 5771 5770 5768 5767 5766 5765 5764 5763 5761 5759 5757 5755 5754 5753 5751 5749 5747 5745 5743 5742 5740 5739 5738 5737 5736 5734 5733 5732 5730 5729
5774 5773 5773 5772 5772 5771 5770 5769 5768 5767 5766 5765 5764 5763 5762 5760 5759 5758 5757 5755 5754 5753 5751 5749 5747 5746 5744 5742 5741 5739 5737 5735 5733 5731 5730 5729 5728 5727 5726 5724 5723 5722 5721